Meteopurmerend
purmerend
Purmerend - Baaienwijk



My webcam  My webcam


waarschuwing voor Onweer Meer informatie blitzortung!


Regen radar Meer informatie rain snow radar


Bezoek onze andere website:

CandyAppleRed WebdesignWebdesign Purmerend Candy Apple Red

MeteopurmerendBlog

Template documentation
and downloads



Onweer van: 26-07-2021 13:00 tot: 21:00 waarschuwing voor: Onweer niveau: Geel info button
Enkele onweersbuien, lokaal met hagel en veel neerslag in korte tijd.Kans op blikseminslag, hagel en veel neerslag in korte tijd.Verkeer en buitenactiviteiten kunnen hinder ondervinden.Mijd open water en open gebied, schuil niet onder bomen.Volg weerberichten en waarschuwingen.

15 daagse weersverwachting Haderslev (DK)

  • Overzicht
  • Per uur
  • 15 dagen
  • Extra
  • Vergelijk
  • Kaarten
  • Dagkaart
  • Meer »
  • Info
  • Statistieken
  • Directe link
    Temp 6h Neerslag Wind  
 05:22     21:36    Daglengte: 16:14 Vandaag
20:00
21°
2.8 mm
2
warningclass
 05:24     21:34    Daglengte: 16:10 Morgen
02:00
18°
2.2 mm
1
warningclass
08:00
19°
2.2 mm
3
14:00
20°
6.0 mm
5
20:00
19°
2.6 mm
4
 05:26     21:33    Daglengte: 16:07 Woensdag 28 Jul
02:00
15°
 
1
08:00
17°
 
3
14:00
20°
22.6 mm
5
20:00
18°
41.0 mm
5
 05:27     21:31    Daglengte: 16:04 Donderdag 29 Jul
02:00
15°
8.5 mm
5
08:00
15°
24.9 mm
6
Locatie info
Region: Syddanmark
Latitude: 55.2506°N
Longitude: 9.4881°E
14 masl
Postcode: 6100
Temp/Neerslag /Baro Onweer/Dauwpunt
    Temp Baro 1h Neerslag Dauwpunt Wind UV Bewolking  
 05:22     21:36    Daglengte: 16:14 Vandaag
16:00
24°
1009.9 hPa 0.7 mm
41%
17.8°
3
Windvlaag: 3.7 m/s
57% warningclass
17:00
24°
1009.8 hPa 0.4 mm
76%
17.4°
2
Windvlaag: 4.2 m/s
52% warningclass
18:00
23°
1009.6 hPa
80%
17.9°
3
Windvlaag: 3.3 m/s
69%
19:00
22°
1009.6 hPa 1.7 mm
82%
17.5°
1
Windvlaag: 3.5 m/s
72% warningclass
20:00
21°
1009.4 hPa
74%
17.9°
2
Windvlaag: 2.4 m/s
40%
21:00
21°
1009.6 hPa
29%
18.1°
1
Windvlaag: -1.1 m/s
25%
22:00
20°
1009.6 hPa
18%
18.6°
1
Windvlaag: -0.6 m/s
25%
23:00
20°
1009.6 hPa
26%
18.9°
1
Windvlaag: -0.6 m/s
28%
 05:24     21:34    Daglengte: 16:10 Morgen
00:00
19°
1009.6 hPa
77%
18.5°
2
Windvlaag: -0.4 m/s
35%
01:00
19°
1009.4 hPa
75%
17.8°
2
Windvlaag: -0.2 m/s
38%
02:00
18°
1009.3 hPa 2.2 mm
77%
16.9°
1
Windvlaag: 0.1 m/s
77% warningclass
03:00
18°
1009.1 hPa 2.2 mm
72%
17.7°
1
Windvlaag: 0.4 m/s
82% warningclass
04:00
18°
1008.8 hPa
15%
17.9°
1
Windvlaag: 1.8 m/s
64%
05:00
18°
1008.5 hPa
18%
17.8°
2
Windvlaag: 3.2 m/s
72%
06:00
18°
1008.4 hPa
23%
17.5°
2
Windvlaag: 3.3 m/s
83%
07:00
18°
1008.5 hPa
19%
17.8°
3
Windvlaag: 4 m/s
84%
08:00
19°
1008.6 hPa
26%
17.9°
3
Windvlaag: 4.9 m/s
57%
09:00
20°
1008.8 hPa
66%
17.4°
3
Windvlaag: 5.6 m/s
40%
10:00
20°
1008.7 hPa
31%
16.5°
4
Windvlaag: 5.8 m/s
17%
11:00
21°
1008.6 hPa
73%
15.4°
4
Windvlaag: 6.4 m/s
44%
12:00
21°
1008.6 hPa
81%
15.7°
5
Windvlaag: 6.3 m/s
60%
13:00
20°
1008.6 hPa 3.4 mm
81%
15.9°
4
Windvlaag: 6.4 m/s
33%
14:00
20°
1008.5 hPa 2.6 mm
82%
15.8°
5
Windvlaag: 6.3 m/s
61%
15:00
20°
1008.3 hPa 2.6 mm
82%
15.7°
5
Windvlaag: 6.6 m/s
51%
16:00
21°
1008.3 hPa
74%
15.9°
5
Windvlaag: 5.8 m/s
41%
17:00
21°
1008.1 hPa
24%
16.3°
5
Windvlaag: 5.6 m/s
17%
18:00
21°
1008.2 hPa
15%
15.5°
5
Windvlaag: 5.3 m/s
20%
19:00
20°
1008.2 hPa
15%
14.7°
5
Windvlaag: 4.6 m/s
52%
20:00
19°
1008.3 hPa
14%
14.4°
4
Windvlaag: 4.3 m/s
55%
21:00
18°
1008.6 hPa
14%
14.0°
3
Windvlaag: 4.1 m/s
16%
22:00
17°
1008.8 hPa
14%
14.1°
3
Windvlaag: 3.6 m/s
9%
23:00
17°
1008.8 hPa
14%
14.3°
2
Windvlaag: 3.5 m/s
11%
 05:26     21:33    Daglengte: 16:07 Woensdag 28 Jul
00:00
16°
1008.5 hPa
14%
14.8°
2
Windvlaag: 2.8 m/s
9%
01:00
16°
1008.3 hPa
14%
14.8°
2
Windvlaag: 2.2 m/s
49%
02:00
15°
1008.1 hPa
14%
14.7°
1
Windvlaag: 2.8 m/s
63%
03:00
16°
1007.9 hPa
22%
15.2°
2
Windvlaag: 5.5 m/s
72%
04:00
16°
1007.5 hPa
80%
15.7°
2
Windvlaag: 5.4 m/s
45%
05:00
16°
1007.3 hPa
79%
15.9°
2
Windvlaag: 4.2 m/s
55%
06:00
16°
1007.1 hPa
33%
15.9°
2
Windvlaag: 4 m/s
71%
07:00
17°
1006.9 hPa
21%
16.2°
3
Windvlaag: 5.5 m/s
61%
08:00
17°
1006.8 hPa
24%
15.6°
3
Windvlaag: 6.1 m/s
76%
09:00
18°
1006.7 hPa
80%
13.4°
3
Windvlaag: 6.3 m/s
55%
10:00
18°
1006.5 hPa
80%
13.2°
4
Windvlaag: 6.9 m/s
43%
11:00
19°
1006.4 hPa 8.0 mm
100%
15.5°
5
Windvlaag: 7.7 m/s
68%
12:00
19°
1006.1 hPa 4.7 mm
100%
13.7°
5
Windvlaag: 7.7 m/s
58%
13:00
20°
1005.9 hPa 4.9 mm
100%
12.6°
5
Windvlaag: 7.8 m/s
84%
14:00
20°
1005.7 hPa 5.0 mm
100%
13.0°
5
Windvlaag: 8.2 m/s
84%
15:00
20°
1005.5 hPa 8.1 mm
100%
14.0°
5
Windvlaag: 8.4 m/s
90%
16:00
20°
1005.4 hPa 5.2 mm
100%
12.0°
5
Windvlaag: 8.8 m/s
96%
17:00
20°
1005.1 hPa 5.2 mm
100%
10.9°
5
Windvlaag: 8.3 m/s
80%
18:00
19°
1004.8 hPa 5.3 mm
100%
13.8°
5
Windvlaag: 8.3 m/s
64%
19:00
19°
1004.6 hPa 8.3 mm
100%
14.7°
5
Windvlaag: 8.1 m/s
72%
20:00
18°
1004.5 hPa 8.8 mm
97%
13.9°
5
Windvlaag: 8.6 m/s
81%
21:00
17°
1004.7 hPa 8.5 mm
30%
14.6°
5
Windvlaag: 8.6 m/s
57%
22:00
17°
1004.8 hPa
22%
13.9°
5
Windvlaag: 8.8 m/s
37%
23:00
16°
1004.5 hPa
29%
13.9°
5
Windvlaag: 8.1 m/s
62%
 05:27     21:31    Daglengte: 16:04 Donderdag 29 Jul
00:00
16°
1004.3 hPa
25%
14.8°
4
Windvlaag: 7.4 m/s
48%
01:00
15°
1004.2 hPa
28%
14.8°
5
Windvlaag: 8.3 m/s
60%
02:00
15°
1003.8 hPa
34%
14.8°
5
Windvlaag: 8.5 m/s
62%
03:00
15°
1003.3 hPa
37%
14.5°
5
Windvlaag: 8.3 m/s
67%
04:00
15°
1002.9 hPa 8.4 mm
35%
14.4°
4
Windvlaag: 8.8 m/s
60%
05:00
15°
1002.5 hPa 8.3 mm
33%
13.5°
5
Windvlaag: 8.8 m/s
32%
06:00
15°
1001.9 hPa 8.3 mm
35%
12.8°
5
Windvlaag: 9.4 m/s
67%
07:00
15°
1001.6 hPa
37%
12.9°
6
Windvlaag: 9.6 m/s
82%
08:00
15°
1001.2 hPa
32%
12.4°
6
Windvlaag: 11.1 m/s
88%
09:00
16°
1000.5 hPa
42%
11.4°
7
Windvlaag: 14.1 m/s
100%
10:00
16°
1000.5 hPa
38%
10.8°
8
Windvlaag: 13.2 m/s
73%
11:00
17°
1000.8 hPa
52%
12.3°
8
Windvlaag: 12.2 m/s
74%
12:00
16°
1001.2 hPa 8.6 mm
100%
10.8°
8
Windvlaag: 13.8 m/s
99%
13:00
17°
1001.6 hPa 8.8 mm
100%
10.2°
9
Windvlaag: 14.4 m/s
90%
14:00
16°
1002.0 hPa 8.8 mm
100%
11.3°
9
Windvlaag: 14.9 m/s
81%
Temp/Neerslag /Baro Onweer/Dauwpunt
    Temp Baro Neerslag Dauwpunt Wind Bewolking  
 05:22     21:36    Daglengte: 16:14 Vandaag
17:00
24°
1009.8 hPa 1.1 mm 17.4°
2
52% warningclass
20:00
21°
1009.4 hPa 1.7 mm 17.9°
2
40% warningclass
23:00
20°
1009.6 hPa   18.9°
1
28%
 05:24     21:34    Daglengte: 16:10 Morgen
02:00
18°
1009.3 hPa 2.2 mm 16.9°
1
77% warningclass
05:00
18°
1008.5 hPa 2.2 mm 17.8°
2
72%
08:00
19°
1008.6 hPa   17.9°
3
57%
11:00
21°
1008.6 hPa   15.4°
4
44%
14:00
20°
1008.5 hPa 6.0 mm 15.8°
5
61%
17:00
21°
1008.1 hPa 2.6 mm 16.3°
5
17%
20:00
19°
1008.3 hPa   14.4°
4
55%
23:00
17°
1008.8 hPa   14.3°
2
11%
 05:26     21:33    Daglengte: 16:07 Woensdag 28 Jul
02:00
15°
1008.1 hPa   14.7°
1
63%
05:00
16°
1007.3 hPa   15.9°
2
55%
08:00
17°
1006.8 hPa   15.6°
3
76%
11:00
19°
1006.4 hPa 8.0 mm 15.5°
5
68%
14:00
20°
1005.7 hPa 14.5 mm 13.0°
5
84%
17:00
20°
1005.1 hPa 18.5 mm 10.9°
5
80%
20:00
18°
1004.5 hPa 22.5 mm 13.9°
5
81%
23:00
16°
1004.5 hPa 8.5 mm 13.9°
5
62%
 05:27     21:31    Daglengte: 16:04 Donderdag 29 Jul
02:00
15°
1003.8 hPa   14.8°
5
62%
05:00
15°
1002.5 hPa 16.6 mm 13.5°
5
32%
08:00
15°
1001.2 hPa 8.3 mm 12.4°
6
88%
11:00
17°
1000.8 hPa   12.3°
8
74%
14:00
16°
1002.0 hPa 26.1 mm 11.3°
9
81%
17:00
17°
1002.1 hPa 22.4 mm 13.4°
11
1%
20:00
16°
1002.7 hPa 23.1 mm 12.6°
9
1%
23:00
15°
1001.8 hPa 23.2 mm 13.0°
8
0%
 05:29     21:29    Daglengte: 16:00 Vrijdag 30 Jul
02:00
15°
1000.8 hPa 23.8 mm 13.4°
6
1%
05:00
14°
1001.5 hPa 23.9 mm 12.9°
6
1%
08:00
17°
1002.5 hPa 23.9 mm 14.6°
7
0%
11:00
19°
1003.4 hPa 24.3 mm 14.1°
9
0%
14:00
19°
1004.1 hPa 24.3 mm 13.3°
10
0%
17:00
18°
1005.0 hPa 24.4 mm 12.8°
9
1%
20:00
17°
1005.1 hPa 24.5 mm 12.8°
7
1%
23:00
14°
1005.4 hPa 24.5 mm 13.0°
4
1%
 05:31     21:27    Daglengte: 15:56 Zaterdag 31 Jul
02:00
14°
1005.2 hPa 24.5 mm 13.4°
5
1%
05:00
13°
1004.1 hPa 24.5 mm 12.3°
4
1%
08:00
16°
1003.9 hPa 24.5 mm 13.3°
4
1%
11:00
20°
1003.3 hPa 24.5 mm 13.2°
5
1%
14:00
19°
1002.2 hPa 28.1 mm 14.6°
5
1%
17:00
16°
1002.0 hPa 32.4 mm 14.2°
4
1%
20:00
17°
1001.1 hPa 32.8 mm 13.5°
4
1%
23:00
13°
1000.9 hPa 32.8 mm 12.2°
4
1%
 05:33     21:25    Daglengte: 15:52 Zondag 01 Aug
02:00
12°
1001.7 hPa 32.8 mm 11.1°
3
1%
05:00
13°
1001.7 hPa 32.8 mm 10.8°
3
1%
08:00
14°
1002.4 hPa 32.9 mm 11.2°
4
1%
11:00
17°
1002.5 hPa 33.0 mm 10.3°
6
1%
14:00
18°
1003.1 hPa 33.4 mm 9.3°
7
1%
17:00
17°
1004.0 hPa 33.4 mm 8.8°
7
1%
20:00
15°
1004.3 hPa 33.4 mm 9.5°
6
1%
23:00
11°
1005.1 hPa 33.5 mm 8.7°
4
0%
 05:35     21:23    Daglengte: 15:48 Maandag 02 Aug
02:00
10°
1005.2 hPa 33.5 mm 8.9°
4
0%
05:00
13°
1005.4 hPa 33.6 mm 8.4°
6
1%
08:00
14°
1006.1 hPa 33.8 mm 10.3°
6
1%
11:00
17°
1007.1 hPa 33.9 mm 9.1°
9
1%
14:00
18°
1008.1 hPa 67.8 mm 8.4°
9
1%
20:00
15°
1009.8 hPa 68.0 mm 9.7°
7
1%
 05:36     21:21    Daglengte: 15:45 Dinsdag 03 Aug
02:00
12°
1011.1 hPa 68.7 mm 9.9°
4
1%
08:00
15°
1011.2 hPa 68.9 mm 10.5°
4
1%
14:00
19°
1011.1 hPa 69.0 mm 9.4°
6
1%
20:00
17°
1011.1 hPa 69.2 mm 10.6°
4
1%
 05:38     21:19    Daglengte: 15:41 Woensdag 04 Aug
02:00
14°
1010.4 hPa 69.2 mm 11.8°
5
1%
08:00
16°
1006.6 hPa 69.7 mm 13.4°
8
1%
14:00
17°
1005.7 hPa 84.3 mm 14.7°
9
1%
20:00
16°
1004.1 hPa 89.4 mm 13.4°
7
1%
 05:40     21:17    Daglengte: 15:37 Donderdag 05 Aug
02:00
14°
1002.8 hPa 89.6 mm 11.4°
6
0%
08:00
17°
1001.2 hPa 89.7 mm 13.2°
8
0%
14:00
20°
1008.7 hPa 1.1 mm 12.1°
4
80%
20:00
17°
1007.5 hPa 1.1 mm 12.6°
2
72%
 05:42     21:15    Daglengte: 15:33 Vrijdag 06 Aug
02:00
14°
1006.9 hPa 0.8 mm 12.0°
2
70%
08:00
15°
1005.8 hPa 0.5 mm 12.5°
2
66%
14:00
19°
1005.3 hPa 1.6 mm 13.0°
3
72%
20:00
17°
1004.5 hPa 1.9 mm 12.8°
3
64%
 05:44     21:13    Daglengte: 15:29 Zaterdag 07 Aug
02:00
13°
1004.5 hPa 0.6 mm 11.8°
1
60%
08:00
15°
1004.0 hPa   12.8°
1
62%
14:00
20°
1004.3 hPa 2.1 mm 12.8°
2
68%
20:00
17°
1004.4 hPa 1.6 mm 12.7°
3
76%
 05:46     21:11    Daglengte: 15:25 Zondag 08 Aug
02:00
13°
1005.1 hPa 0.6 mm 11.8°
2
65%
08:00
15°
1005.3 hPa 0.3 mm 12.1°
3
66%
14:00
19°
1006.2 hPa 1.3 mm 12.6°
4
80%
20:00
17°
1006.8 hPa 1.2 mm 12.4°
3
65%
 05:47     21:09    Daglengte: 15:22 Maandag 09 Aug
02:00
13°
1007.7 hPa 0.4 mm 11.6°
3
57%
08:00
15°
1007.7 hPa 0.5 mm 12.1°
3
71%
14:00
19°
1009.0 hPa 1.5 mm 12.7°
5
71%
20:00
17°
1009.6 hPa 2.0 mm 12.6°
4
66%
 05:49     21:06    Daglengte: 15:17 Dinsdag 10 Aug
02:00
13°
1010.7 hPa 0.3 mm 11.6°
3
57%
08:00
15°
1011.0 hPa 0.4 mm 12.1°
3
61%
14:00
19°
1011.9 hPa   12.4°
5
68%
  CAPE Lifted Index Hail Supercell Tornado SRH 3km CL BTM PRES CL TOP PRES Swiss DWD icon SMHI TS
 05:22     21:36    Daglengte: 16:14 Vandaag
16:00 1261 J/kg -4.6 K 0 % 0 % 0 % 0 m²/s² 0 0 -3.76 80
17:00 1434 J/kg -5.0 K 0 % 0 % 0 % 0 m²/s² 0 0 -3.74 3
18:00 1234 J/kg -4.3 K 0 % 0 % 0 % 0 m²/s² 0 0 -3.31 80
19:00 1289 J/kg -4.5 K 0 % 0 % 0 % 0 m²/s² 0 0 -3.45 81
20:00 1348 J/kg -4.3 K 0 % 0 % 0 % 0 m²/s² 0 0 -3.4 3
21:00 1242 J/kg -4.0 K 0 % 0 % 0 % 0 m²/s² 0 0 -3.1 3
22:00 1161 J/kg -4.0 K 0 % 0 % 0 % 0 m²/s² 0 0 -3.25 3
23:00 1010 J/kg -3.7 K 0 % 0 % 0 % 0 m²/s² 0 0 -3.52 3
 05:24     21:34    Daglengte: 16:10 Morgen
00:00 993 J/kg -3.6 K 0 % 0 % 0 % 0 m²/s² 0 0 -3.06 80
01:00 1127 J/kg -4.0 K 0 % 0 % 0 % 0 m²/s² 0 0 -3.64 3
02:00 797 J/kg -3.3 K 0 % 0 % 0 % 0 m²/s² 0 0 -2.91 80
03:00 1144 J/kg -4.4 K 0 % 0 % 0 % 0 m²/s² 0 0 -3.41 3
04:00 1256 J/kg -4.5 K 0 % 0 % 0 % 0 m²/s² 0 0 -3.3 3
05:00 1302 J/kg -4.5 K 0 % 0 % 0 % 0 m²/s² 0 0 -2.91 3
06:00 1387 J/kg -4.9 K 0 % 0 % 0 % 0 m²/s² 0 0 -3.43 3
07:00 1302 J/kg -4.8 K 0 % 0 % 0 % 0 m²/s² 0 0 -3.06 3
08:00 1021 J/kg -3.9 K 0 % 0 % 0 % 0 m²/s² 0 0 -2.37 2
09:00 971 J/kg -3.7 K 0 % 0 % 0 % 0 m²/s² 0 0 -2.56 2
10:00 797 J/kg -3.2 K 0 % 0 % 0 % 0 m²/s² 0 0 -2.12 2
11:00 674 J/kg -2.6 K 0 % 0 % 0 % 0 m²/s² 0 0 -1.34 3
12:00 672 J/kg -2.5 K 0 % 0 % 0 % 0 m²/s² 0 0 -1.3 3
13:00 656 J/kg -2.7 K 0 % 0 % 0 % 0 m²/s² 0 0 -0.99 3
14:00 654 J/kg -2.6 K 0 % 0 % 0 % 0 m²/s² 0 0 -0.71 80
15:00 606 J/kg -2.7 K 0 % 0 % 0 % 0 m²/s² 0 0 -0.57 80
16:00 587 J/kg -2.5 K 0 % 0 % 0 % 0 m²/s² 0 0 -0.22 3
17:00 424 J/kg -1.9 K 0 % 0 % 0 % 0 m²/s² 0 0 0.26 2
18:00 345 J/kg -1.8 K 0 % 0 % 0 % 0 m²/s² 0 0 0.99 2
19:00 170 J/kg -1.2 K 0 % 0 % 0 % 0 m²/s² 0 0 2.46 3
20:00 81 J/kg -0.5 K 0 % 0 % 0 % 0 m²/s² 0 0 3.07 3
21:00 47 J/kg 0.3 K 0 % 0 % 0 % 0 m²/s² 0 0 3.42 2
22:00 6 J/kg 0.7 K 0 % 0 % 0 % 0 m²/s² 0 0 3.49 1
23:00 1 J/kg 1.0 K 0 % 0 % 0 % 0 m²/s² 0 0 3.55 1
 05:26     21:33    Daglengte: 16:07 Woensdag 28 Jul
00:00 1 J/kg 0.6 K 0 % 0 % 0 % 0 m²/s² 0 0 2.88 1
01:00 0 J/kg 0.3 K 0 % 0 % 0 % 0 m²/s² 0 0 1.77 3
02:00 1 J/kg 0.0 K 0 % 0 % 0 % 0 m²/s² 0 0 1.8 3
03:00 0 J/kg 0.1 K 0 % 0 % 0 % 0 m²/s² 0 0 0.88 3
04:00 6 J/kg 0.5 K 0 % 0 % 0 % 0 m²/s² 0 0 0.5 3
05:00 47 J/kg 0.5 K 0 % 0 % 0 % 0 m²/s² 0 0 0.5 3
06:00 21 J/kg 0.6 K 0 % 0 % 0 % 0 m²/s² 0 0 0.63 3
07:00 63 J/kg 0.0 K 0 % 0 % 0 % 0 m²/s² 0 0 0.09 3
08:00 51 J/kg 0.3 K 0 % 0 % 0 % 0 m²/s² 0 0 0.6 3
09:00 140 J/kg -0.3 K 0 % 0 % 0 % 0 m²/s² 0 0 0.03 3
10:00 405 J/kg -1.4 K 0 % 0 % 0 % 0 m²/s² 0 0 -0.8 3
11:00 408 J/kg -1.1 K 0 % 0 % 0 % 0 m²/s² 0 0 -0.77 3
12:00 250 J/kg -0.6 K 0 % 0 % 0 % 0 m²/s² 0 0 -0.18 3
13:00 272 J/kg -0.9 K 0 % 0 % 0 % 0 m²/s² 0 0 -0.03 3
14:00 360 J/kg -1.2 K 0 % 0 % 0 % 0 m²/s² 0 0 -0.18 3
15:00 532 J/kg -1.4 K 0 % 0 % 0 % 0 m²/s² 0 0 -0.11 3
16:00 315 J/kg -0.8 K 0 % 0 % 0 % 0 m²/s² 0 0 0.94 80
17:00 173 J/kg -0.6 K 0 % 0 % 0 % 0 m²/s² 0 0 0.96 80
18:00 449 J/kg -1.8 K 0 % 0 % 0 % 0 m²/s² 0 0 -0.33 80
19:00 586 J/kg -2.1 K 0 % 0 % 0 % 0 m²/s² 0 0 0.24 3
20:00 362 J/kg -1.6 K 0 % 0 % 0 % 0 m²/s² 0 0 1.52 3
21:00 342 J/kg -1.4 K 0 % 0 % 0 % 0 m²/s² 0 0 0.22 3
22:00 252 J/kg -1.3 K 0 % 0 % 0 % 0 m²/s² 0 0 -0.13 2
23:00 235 J/kg -1.3 K 0 % 0 % 0 % 0 m²/s² 0 0 -0.61 2
 05:27     21:31    Daglengte: 16:04 Donderdag 29 Jul
00:00 322 J/kg -2.1 K 0 % 0 % 0 % 0 m²/s² 0 0 0.27 2
01:00 441 J/kg -2.8 K 0 % 0 % 0 % 0 m²/s² 0 0 -1.27 2
02:00 457 J/kg -2.3 K 0 % 0 % 0 % 0 m²/s² 0 0 1 3
03:00 370 J/kg -1.5 K 0 % 0 % 0 % 0 m²/s² 0 0 2.67 3
04:00 269 J/kg -0.7 K 0 % 0 % 0 % 0 m²/s² 0 0 3.68 3
05:00 63 J/kg 0.6 K 0 % 0 % 0 % 0 m²/s² 0 0 6.12 3
06:00 47 J/kg 0.5 K 0 % 0 % 0 % 0 m²/s² 0 0 1.19 3
07:00 257 J/kg -0.3 K 0 % 0 % 0 % 0 m²/s² 0 0 2.97 3
08:00 363 J/kg -0.4 K 0 % 0 % 0 % 0 m²/s² 0 0 3.95 3
09:00 289 J/kg -0.1 K 0 % 0 % 0 % 0 m²/s² 0 0 3.83 3
10:00 356 J/kg -0.1 K 0 % 0 % 0 % 0 m²/s² 0 0 1.25 3
11:00 434 J/kg -0.8 K 0 % 0 % 0 % 0 m²/s² 0 0 0.64 3
12:00 454 J/kg -0.7 K 0 % 0 % 0 % 0 m²/s² 0 0 1.04 3
13:00 497 J/kg -1.3 K 0 % 0 % 0 % 0 m²/s² 0 0 0.8 80
14:00 202 J/kg -0.9 K 0 % 0 % 0 % 0 m²/s² 0 0 1.14 80
Temp Baro Wind Neerslag
  EWN Forecast EWN WRFDA DWD ICON FMI HIRLAM MET Norway GFS
 05:22     21:36    Daglengte: 16:14 Vandaag
17:00 23.6° 1009.8 hPa 2.4 m/s 1.1 mm 25.5° 1008.7 hPa 3.4 m/s 0.5 mm 23.4° 1009.9 hPa 2.3 m/s -0.8 mm 25.5° 1009.3 hPa 3.2 m/s 0.0 mm 25.8° 1009.1 hPa 4.8 m/s
20:00 21.4° 1009.4 hPa 1.8 m/s 1.7 mm 21.2° 1009.2 hPa 3.7 m/s 8.6 mm 21.2° 1009.3 hPa 1.8 m/s 3.6 mm 23.7° 1009.1 hPa 2.5 m/s 0.0 mm 21.8° 1008.8 hPa 2.9 m/s
23:00 19.6° 1009.6 hPa 1.4 m/s 0.0 mm 19.9° 1009.3 hPa 1.2 m/s 17.4 mm 19.7° 1009.8 hPa 1.3 m/s 0.0 mm 20.4° 1009.0 hPa 1.5 m/s 0.0 mm 18.4° 1009.2 hPa 1.7 m/s
 05:24     21:34    Daglengte: 16:10 Morgen
02:00 18.2° 1009.3 hPa 1.3 m/s 2.2 mm 17.3° 1008.5 hPa 2.4 m/s 28.4 mm 18.2° 1009.6 hPa 0.6 m/s 0.8 mm 19.5° 1007.9 hPa 2.3 m/s 0.0 mm 17.2° 1009.1 hPa 1.6 m/s
05:00 18.2° 1008.5 hPa 1.5 m/s 2.2 mm 17.2° 1007.6 hPa 2.5 m/s 30.4 mm 17.4° 1009.2 hPa 1.0 m/s 0.2 mm 18.7° 1006.9 hPa 1.4 m/s 0.0 mm 16.0° 1008.8 hPa 2.9 m/s
08:00 18.8° 1008.6 hPa 3.2 m/s 0.0 mm 18.7° 1007.5 hPa 3.7 m/s 30.4 mm 18.8° 1009.1 hPa 2.3 m/s 0.0 mm 19.4° 1007.1 hPa 3.9 m/s 0.0 mm 18.3° 1008.8 hPa 3.9 m/s
11:00 20.8° 1008.6 hPa 4.2 m/s 0.0 mm 22.5° 1007.7 hPa 5.1 m/s 30.4 mm 20.5° 1009.0 hPa 4.0 m/s 0.0 mm 22.0° 1007.4 hPa 5.4 m/s 0.0 mm 21.8° 1008.5 hPa 4.6 m/s
14:00 20.4° 1008.5 hPa 4.7 m/s 6.0 mm 22.3° 1008.5 hPa 4.8 m/s 31.7 mm 20.2° 1008.9 hPa 5.4 m/s 0.6 mm 20.5° 1007.9 hPa 4.7 m/s 0.0 mm 21.0° 1008.9 hPa 6.4 m/s
17:00 20.7° 1008.1 hPa 4.9 m/s 2.6 mm 22.5° 1008.0 hPa 5.4 m/s 32.6 mm 21.1° 1008.8 hPa 6.0 m/s 0.4 mm 19.8° 1007.9 hPa 4.9 m/s 0.0 mm 21.7° 1009.0 hPa 6.3 m/s
20:00 19.5° 1008.3 hPa 4.3 m/s 0.0 mm 20.7° 1008.2 hPa 3.2 m/s 32.6 mm 19.5° 1009.0 hPa 4.3 m/s 0.0 mm 19.7° 1007.9 hPa 5.2 m/s 0.0 mm 19.5° 1008.9 hPa 3.7 m/s
23:00 16.9° 1008.8 hPa 2.2 m/s 0.0 mm 18.3° 1008.4 hPa 1.6 m/s 32.6 mm 16.4° 1009.2 hPa 1.8 m/s 0.0 mm 17.1° 1008.6 hPa 2.5 m/s 0.0 mm 16.5° 1009.3 hPa 3.3 m/s
 05:26     21:33    Daglengte: 16:07 Woensdag 28 Jul
02:00 15.5° 1008.1 hPa 1.5 m/s 0.0 mm 15.0° 1007.0 hPa 0.8 m/s 32.6 mm 15.5° 1008.5 hPa 0.9 m/s 0.0 mm 15.0° 1008.2 hPa 1.5 m/s 0.0 mm 15.6° 1008.4 hPa 3.2 m/s
05:00 15.9° 1007.3 hPa 1.7 m/s 0.0 mm 16.0° 1006.8 hPa 0.4 m/s 47.1 mm 16.4° 1007.5 hPa 1.8 m/s 0.2 mm 13.2° 1007.5 hPa 0.6 m/s 0.0 mm 14.7° 1007.6 hPa 3.3 m/s
08:00 17.1° 1006.8 hPa 3.1 m/s 0.0 mm 17.2° 1006.1 hPa 2.0 m/s 63.8 mm 17.0° 1006.7 hPa 3.5 m/s 0.0 mm 18.1° 1007.1 hPa 0.6 m/s 0.0 mm 17.9° 1007.6 hPa 4.3 m/s
11:00 18.8° 1006.4 hPa 4.7 m/s 8.0 mm 19.0° 1006.1 hPa 3.1 m/s 65.4 mm 18.6° 1006.6 hPa 5.1 m/s 0.2 mm 17.8° 1007.5 hPa 3.1 m/s
14:00 19.9° 1005.7 hPa 4.7 m/s 14.5 mm 21.5° 1005.7 hPa 2.5 m/s 68.1 mm 20.0° 1005.4 hPa 5.0 m/s 0.3 mm 20.8° 1007.0 hPa 6.4 m/s
17:00 19.6° 1005.1 hPa 4.7 m/s 18.5 mm 22.6° 1005.1 hPa 5.5 m/s 71.0 mm 19.5° 1004.6 hPa 4.6 m/s 1.0 mm 19.4° 1006.6 hPa 6.8 m/s
20:00 18.4° 1004.5 hPa 4.8 m/s 22.5 mm 19.6° 1004.8 hPa 4.2 m/s 73.0 mm 17.5° 1003.4 hPa 5.0 m/s 0.8 mm 18.3° 1006.1 hPa 5.8 m/s
23:00 16.3° 1004.5 hPa 4.7 m/s 8.5 mm 16.7° 1004.6 hPa 3.8 m/s 73.7 mm 15.9° 1003.5 hPa 5.3 m/s 0.0 mm 14.8° 1005.8 hPa 5.1 m/s
 05:27     21:31    Daglengte: 16:04 Donderdag 29 Jul
02:00 15.3° 1003.8 hPa 4.7 m/s 0.0 mm 15.0° 1004.1 hPa 4.5 m/s 73.7 mm 15.3° 1002.6 hPa 4.8 m/s 0.0 mm 13.7° 1004.4 hPa 4.9 m/s
05:00 14.8° 1002.5 hPa 4.5 m/s 16.6 mm 13.9° 1002.7 hPa 4.5 m/s 73.7 mm 14.9° 1001.2 hPa 4.5 m/s 0.0 mm 14.5° 1002.6 hPa 7.3 m/s
08:00 15.5° 1001.2 hPa 6.5 m/s 8.3 mm 16.8° 1001.3 hPa 8.0 m/s 73.7 mm 15.4° 1000.4 hPa 6.3 m/s 0.0 mm 15.0° 1001.2 hPa 9.0 m/s
11:00 16.5° 1000.8 hPa 7.7 m/s 0.0 mm 16.4° 1001.2 hPa 7.6 m/s 74.3 mm 16.6° 1000.7 hPa 7.7 m/s 0.0 mm 15.9° 1001.2 hPa 10.0 m/s
14:00 16.5° 1002.0 hPa 9.3 m/s 26.1 mm 15.5° 1001.8 hPa 8.5 m/s 76.7 mm 16.7° 1002.1 hPa 9.5 m/s 0.9 mm 16.7° 1000.8 hPa 10.9 m/s
17:00 17.0° 1002.1 hPa 11.3 m/s 22.4 mm 17.0° 1002.1 hPa 11.3 m/s 22.4 mm
20:00 15.5° 1002.7 hPa 9.2 m/s 23.1 mm 15.5° 1002.7 hPa 9.2 m/s 23.1 mm
23:00 15.1° 1001.8 hPa 7.6 m/s 23.2 mm 15.1° 1001.8 hPa 7.6 m/s 23.2 mm
 05:29     21:29    Daglengte: 16:00 Vrijdag 30 Jul
02:00 15.2° 1000.8 hPa 6.3 m/s 23.8 mm 15.2° 1000.8 hPa 6.3 m/s 23.8 mm
05:00 14.2° 1001.5 hPa 6.1 m/s 23.9 mm 14.2° 1001.5 hPa 6.1 m/s 23.9 mm
08:00 16.9° 1002.5 hPa 7.1 m/s 23.9 mm 16.9° 1002.5 hPa 7.1 m/s 23.9 mm
11:00 19.2° 1003.4 hPa 9.5 m/s 24.3 mm 19.2° 1003.4 hPa 9.5 m/s 24.3 mm
14:00 19.5° 1004.1 hPa 10.4 m/s 24.3 mm 19.5° 1004.1 hPa 10.4 m/s 24.3 mm
17:00 18.1° 1005.0 hPa 8.7 m/s 24.4 mm 18.1° 1005.0 hPa 8.7 m/s 24.4 mm
20:00 17.0° 1005.1 hPa 7.3 m/s 24.5 mm 17.0° 1005.1 hPa 7.3 m/s 24.5 mm
23:00 13.8° 1005.4 hPa 4.3 m/s 24.5 mm 13.8° 1005.4 hPa 4.3 m/s 24.5 mm
 05:31     21:27    Daglengte: 15:56 Zaterdag 31 Jul
02:00 14.3° 1005.2 hPa 4.8 m/s 24.5 mm 14.3° 1005.2 hPa 4.8 m/s 24.5 mm
05:00 12.7° 1004.1 hPa 4.2 m/s 24.5 mm 12.7° 1004.1 hPa 4.2 m/s 24.5 mm
08:00 15.8° 1003.9 hPa 4.3 m/s 24.5 mm 15.8° 1003.9 hPa 4.3 m/s 24.5 mm
11:00 19.6° 1003.3 hPa 4.7 m/s 24.5 mm 19.6° 1003.3 hPa 4.7 m/s 24.5 mm
14:00 18.7° 1002.2 hPa 5.0 m/s 28.1 mm 18.7° 1002.2 hPa 5.0 m/s 28.1 mm
17:00 16.0° 1002.0 hPa 3.6 m/s 32.4 mm 16.0° 1002.0 hPa 3.6 m/s 32.4 mm
20:00 16.7° 1001.1 hPa 4.5 m/s 32.8 mm 16.7° 1001.1 hPa 4.5 m/s 32.8 mm
23:00 12.8° 1000.9 hPa 3.6 m/s 32.8 mm 12.8° 1000.9 hPa 3.6 m/s 32.8 mm
 05:33     21:25    Daglengte: 15:52 Zondag 01 Aug
02:00 11.6° 1001.7 hPa 3.4 m/s 32.8 mm 11.6° 1001.7 hPa 3.4 m/s 32.8 mm
05:00 12.9° 1001.7 hPa 2.6 m/s 32.8 mm 12.9° 1001.7 hPa 2.6 m/s 32.8 mm
08:00 14.4° 1002.4 hPa 4.0 m/s 32.9 mm 14.4° 1002.4 hPa 4.0 m/s 32.9 mm
11:00 17.3° 1002.5 hPa 6.2 m/s 33.0 mm 17.3° 1002.5 hPa 6.2 m/s 33.0 mm
14:00 18.4° 1003.1 hPa 6.8 m/s 33.4 mm 18.4° 1003.1 hPa 6.8 m/s 33.4 mm
17:00 17.3° 1004.0 hPa 6.8 m/s 33.4 mm 17.3° 1004.0 hPa 6.8 m/s 33.4 mm
20:00 15.1° 1004.3 hPa 5.6 m/s 33.4 mm 15.1° 1004.3 hPa 5.6 m/s 33.4 mm
23:00 10.6° 1005.1 hPa 3.6 m/s 33.5 mm 10.6° 1005.1 hPa 3.6 m/s 33.5 mm
 05:35     21:23    Daglengte: 15:48 Maandag 02 Aug
02:00 10.5° 1005.2 hPa 4.2 m/s 33.5 mm 10.5° 1005.2 hPa 4.2 m/s 33.6 mm
05:00 13.1° 1005.4 hPa 6.4 m/s 33.6 mm 13.1° 1005.4 hPa 6.4 m/s 33.6 mm
08:00 14.0° 1006.1 hPa 6.1 m/s 33.8 mm 14.0° 1006.1 hPa 6.1 m/s 33.8 mm
11:00 17.4° 1007.1 hPa 8.8 m/s 33.9 mm 17.4° 1007.1 hPa 8.8 m/s 33.9 mm
14:00 18.1° 1008.1 hPa 9.1 m/s 33.9 mm 18.1° 1008.1 hPa 9.1 m/s 33.9 mm
20:00 15.0° 1009.8 hPa 6.7 m/s 34.0 mm 15.0° 1009.8 hPa 6.7 m/s 34.0 mm
 05:36     21:21    Daglengte: 15:45 Dinsdag 03 Aug
02:00 11.7° 1011.1 hPa 4.5 m/s 34.5 mm 11.7° 1011.1 hPa 4.5 m/s 34.5 mm
08:00 14.8° 1011.2 hPa 3.9 m/s 34.5 mm 14.8° 1011.2 hPa 3.9 m/s 34.5 mm
14:00 18.5° 1011.1 hPa 5.5 m/s 34.5 mm 18.5° 1011.1 hPa 5.5 m/s 34.5 mm
20:00 16.7° 1011.1 hPa 4.2 m/s 34.6 mm 16.7° 1011.1 hPa 4.2 m/s 34.6 mm
 05:38     21:19    Daglengte: 15:41 Woensdag 04 Aug
02:00 14.3° 1010.4 hPa 4.7 m/s 34.6 mm 14.3° 1010.4 hPa 4.7 m/s 34.6 mm
08:00 16.3° 1006.6 hPa 7.7 m/s 35.2 mm 16.3° 1006.6 hPa 7.7 m/s 35.2 mm
14:00 17.1° 1005.7 hPa 9.3 m/s 42.8 mm 17.1° 1005.7 hPa 9.3 m/s 42.8 mm
20:00 16.3° 1004.1 hPa 7.1 m/s 44.8 mm 16.3° 1004.1 hPa 7.1 m/s 44.8 mm
 05:40     21:17    Daglengte: 15:37 Donderdag 05 Aug
02:00 13.5° 1002.8 hPa 5.9 m/s 44.8 mm 13.5° 1002.8 hPa 5.9 m/s 44.8 mm
08:00 16.6° 1001.2 hPa 7.8 m/s 44.9 mm 16.6° 1001.2 hPa 7.8 m/s 44.9 mm
14:00 19.7° 1008.7 hPa 3.6 m/s 1.1 mm
20:00 17.2° 1007.5 hPa 1.7 m/s 1.1 mm
 05:42     21:15    Daglengte: 15:33 Vrijdag 06 Aug
02:00 13.8° 1006.9 hPa 1.6 m/s 0.8 mm
08:00 15.1° 1005.8 hPa 1.7 m/s 0.5 mm
14:00 19.4° 1005.3 hPa 2.7 m/s 1.6 mm
20:00 17.2° 1004.5 hPa 2.7 m/s 1.9 mm
 05:44     21:13    Daglengte: 15:29 Zaterdag 07 Aug
02:00 13.5° 1004.5 hPa 1.2 m/s 0.6 mm
08:00 15.1° 1004.0 hPa 1.4 m/s 0.0 mm
14:00 19.9° 1004.3 hPa 2.5 m/s 2.1 mm
20:00 16.9° 1004.4 hPa 2.5 m/s 1.6 mm
 05:46     21:11    Daglengte: 15:25 Zondag 08 Aug
02:00 13.5° 1005.1 hPa 2.1 m/s 0.6 mm
08:00 15.0° 1005.3 hPa 2.7 m/s 0.3 mm
14:00 19.0° 1006.2 hPa 4.2 m/s 1.3 mm
20:00 16.6° 1006.8 hPa 3.4 m/s 1.2 mm
 05:47     21:09    Daglengte: 15:22 Maandag 09 Aug
02:00 13.4° 1007.7 hPa 2.8 m/s 0.4 mm
08:00 14.8° 1007.7 hPa 3.2 m/s 0.5 mm
14:00 19.3° 1009.0 hPa 4.6 m/s 1.5 mm
20:00 16.6° 1009.6 hPa 4.0 m/s 2.0 mm
 05:49     21:06    Daglengte: 15:17 Dinsdag 10 Aug
02:00 13.4° 1010.7 hPa 3.0 m/s 0.3 mm
08:00 14.8° 1011.0 hPa 3.1 m/s 0.4 mm
14:00 18.8° 1011.9 hPa 4.7 m/s 0.0 mm